IA5FYI-13 Weather Reports


Display with metric or nautical units.
time (UTC)temp
F
wind
direction
speed
MPH
gust
MPH
rain 1hr
in
rain 24hr
in
rain mn
in
humidity
%
barometer
mb
20260507075510 66 71 4.0 4.0 0.00 0.00 0.00 73 1012.2
20260507075013 66 358 4.0 4.0 0.00 0.00 0.00 72 1012.5
20260507074513 66 3 4.0 4.0 0.00 0.00 0.00 72 1012.2
20260507074013 66 42 3.0 4.0 0.00 0.00 0.00 72 1012.2
20260507073510 66 91 6.0 7.0 0.00 0.00 0.00 71 1012.2
20260507073024 66 7 2.0 2.0 0.00 0.00 0.00 71 1012.5
20260507072509 66 112 2.0 2.0 0.00 0.00 0.00 71 1012.9
20260507072013 66 26 2.0 4.0 0.00 0.00 0.00 72 1012.5
20260507071513 66 94 2.0 4.0 0.00 0.00 0.00 72 1012.5
20260507071014 66 47 2.0 3.0 0.00 0.00 0.00 73 1012.5
20260507070510 66 7 3.0 4.0 0.00 0.00 0.00 72 1012.9
20260507070035 66 9 2.0 4.0 0.00 0.00 0.00 73 1012.5
20260507065510 66 137 1.0 2.0 0.00 0.00 0.00 74 1012.2
20260507065013 64 32 2.0 3.0 0.00 0.00 0.00 75 1012.2
20260507064513 64 129 5.0 6.0 0.00 0.00 0.00 74 1012.2
20260507064014 64 105 4.0 4.0 0.00 0.00 0.00 75 1012.2
20260507063509 64 99 2.0 2.0 0.00 0.00 0.00 76 1012.2
20260507063025 64 29 2.0 2.0 0.00 0.00 0.00 75 1012.2
20260507062509 64 56 1.0 2.0 0.00 0.00 0.00 75 1012.2
20260507062013 66 46 5.0 6.0 0.00 0.00 0.00 72 1011.9
20260507061514 66 328 1.0 2.0 0.00 0.00 0.00 74 1011.9
20260507061015 64 26 2.0 4.0 0.00 0.00 0.00 74 1011.9
20260507060509 64 33 2.0 4.0 0.00 0.00 0.00 75 1011.9
20260507060032 64 58 2.0 2.0 0.00 0.00 0.00 74 1011.9
20260507055509 64 68 4.0 7.0 0.00 0.00 0.00 74 1011.9
20260507055014 64 42 3.0 3.0 0.00 0.00 0.00 74 1011.9
20260507054513 64 18 2.0 4.0 0.00 0.00 0.00 73 1011.5
20260507054013 64 245 1.0 2.0 0.00 0.00 0.00 76 1011.5
20260507053509 64 315 4.0 7.0 0.00 0.00 0.00 75 1011.5
20260507053022 64 308 2.0 4.0 0.00 0.00 0.00 75 1011.5
20260507052509 64 44 3.0 4.0 0.00 0.00 0.00 75 1011.9
20260507052013 64 37 3.0 4.0 0.00 0.00 0.00 75 1011.5
20260507051513 64 72 5.0 7.0 0.00 0.00 0.00 75 1011.5
20260507051013 64 57 2.0 4.0 0.00 0.00 0.00 76 1011.5
20260507050510 63 9 1.0 2.0 0.00 0.00 0.00 75 1011.2
20260507050032 63 157 2.0 2.0 0.00 0.00 0.00 76 1011.5
20260507045510 63 356 2.0 3.0 0.00 0.00 0.00 76 1011.2
20260507045012 63 320 6.0 7.0 0.00 0.00 0.00 76 1011.2
20260507044513 63 311 1.0 2.0 0.00 0.00 0.00 77 1011.2
20260507044013 63 348 2.0 4.0 0.00 0.00 0.00 77 1011.2
20260507043509 63 234 3.0 4.0 0.00 0.00 0.00 77 1011.2
20260507043022 63 38 4.0 5.0 0.00 0.00 0.00 77 1011.2
20260507042509 63 300 4.0 4.0 0.00 0.00 0.00 77 1011.2
20260507042013 63 275 4.0 7.0 0.00 0.00 0.00 78 1011.2
20260507041513 63 291 6.0 7.0 0.00 0.00 0.00 77 1011.2
20260507041013 63 329 6.0 9.0 0.00 0.00 0.00 76 1011.2
20260507040509 63 347 6.0 7.0 0.00 0.00 0.00 77 1011.2
20260507040031 63 0 7.0 9.0 0.00 0.00 0.00 78 1011.2
20260507035510 63 267 4.0 5.0 0.00 0.00 0.00 78 1011.2
20260507035013 63 135 2.0 3.0 0.00 0.00 0.00 78 1010.8
20260507034014 63 334 7.0 9.0 0.00 0.00 0.00 78 1011.2
20260507033509 63 344 10.0 12.0 0.00 0.00 0.00 78 1011.2
20260507033022 61 337 8.0 9.0 0.00 0.00 0.00 79 1011.2
20260507032512 61 332 10.0 12.0 0.00 0.00 0.00 81 1010.8
20260507032013 61 130 2.0 3.0 0.00 0.00 0.00 84 1011.2
20260507031513 61 329 2.0 3.0 0.00 0.00 0.00 86 1010.8
20260507031013 61 135 1.0 2.0 0.00 0.00 0.00 86 1010.8
20260507030509 61 99 2.0 2.0 0.00 0.00 0.00 86 1011.2
20260507030034 61 33 8.0 9.0 0.00 0.00 0.00 86 1011.2
20260507025509 61 281 3.0 4.0 0.00 0.00 0.00 86 1011.2
20260507025012 61 19 2.0 2.0 0.00 0.00 0.00 86 1011.2
20260507024513 61 6 4.0 5.0 0.00 0.00 0.00 86 1010.8
20260507024013 61 28 3.0 4.0 0.00 0.00 0.00 86 1011.2
20260507023509 61 343 3.0 4.0 0.00 0.00 0.00 86 1011.2
20260507023022 61 9 3.0 4.0 0.00 0.00 0.00 86 1010.8
20260507022510 61 309 4.0 5.0 0.00 0.00 0.00 86 1011.2
20260507022013 61 23 2.0 2.0 0.00 0.00 0.00 86 1011.2
20260507021514 61 286 3.0 4.0 0.00 0.00 0.00 86 1011.2
20260507021013 61 347 4.0 9.0 0.00 0.00 0.00 86 1011.2
20260507020509 61 354 5.0 7.0 0.00 0.00 0.00 85 1011.2
20260507020031 61 85 5.0 6.0 0.00 0.00 0.00 85 1010.8
20260507015509 61 107 4.0 5.0 0.00 0.00 0.00 85 1010.8
20260507015013 61 289 1.0 1.0 0.00 0.00 0.00 85 1010.8
20260507014512 61 178 1.0 2.0 0.00 0.00 0.00 85 1010.8
20260507014014 61 181 0.0 1.0 0.00 0.00 0.00 85 1010.8
20260507013509 61 0 4.0 5.0 0.00 0.00 0.00 84 1010.8
20260507013022 61 144 2.0 2.0 0.00 0.00 0.00 84 1011.2
20260507012509 61 25 2.0 2.0 0.00 0.00 0.00 84 1010.8
20260507012014 61 264 2.0 3.0 0.00 0.00 0.00 83 1010.8
20260507011513 61 353 2.0 4.0 0.00 0.00 0.00 83 1010.8
20260507011013 61 132 1.0 2.0 0.00 0.00 0.00 83 1010.8
20260507010509 61 45 3.0 4.0 0.00 0.00 0.00 82 1010.8
20260507010031 61 96 2.0 3.0 0.00 0.00 0.00 82 1010.8
20260507005509 61 156 2.0 3.0 0.00 0.00 0.00 82 1010.8
20260507005013 61 38 3.0 4.0 0.00 0.00 0.00 82 1010.8
20260507004512 61 87 3.0 6.0 0.00 0.00 0.00 81 1011.2
20260507004013 61 42 6.0 8.0 0.00 0.00 0.00 81 1010.8
20260507003509 61 342 6.0 9.0 0.00 0.00 0.00 82 1010.8
20260507003022 61 354 1.0 2.0 0.00 0.00 0.00 82 1010.8
20260507002509 61 46 4.0 6.0 0.00 0.00 0.00 82 1011.2
20260507002013 61 71 4.0 9.0 0.00 0.00 0.00 82 1010.5
20260507001513 61 131 6.0 9.0 0.00 0.00 0.00 82 1010.5
20260507001013 63 110 2.0 4.0 0.00 0.00 0.00 82 1010.8
20260507000510 63 123 4.0 5.0 0.00 0.00 0.00 83 1010.8
20260507000034 61 109 6.0 7.0 0.00 0.00 0.00 83 1010.8
20260506235510 61 9 2.0 4.0 0.00 0.00 0.00 83 1010.8
20260506235014 61 66 8.0 9.0 0.00 0.00 0.00 83 1010.8
20260506234514 61 287 1.0 2.0 0.00 0.00 0.00 84 1010.5
20260506234012 61 122 1.0 3.0 0.00 0.00 0.00 86 1010.5
20260506233510 61 315 2.0 4.0 0.00 0.00 0.00 89 1010.5
20260506233023 61 233 8.0 9.0 0.00 0.00 0.00 90 1010.5
20260506232509 63 337 3.0 4.0 0.00 0.00 0.00 91 1010.5
20260506232013 63 305 2.0 2.0 0.00 0.00 0.00 91 1010.5
20260506231512 63 297 3.0 4.0 0.00 0.00 0.00 91 1010.5
20260506231013 63 352 3.0 4.0 0.00 0.00 0.00 91 1010.2
20260506230509 63 232 1.0 2.0 0.00 0.00 0.00 90 1010.2
20260506230032 63 178 0.0 1.0 0.00 0.00 0.00 90 1010.2
20260506225510 63 137 2.0 2.0 0.00 0.00 0.00 90 1010.2
20260506225013 63 132 1.0 2.0 0.00 0.00 0.00 90 1010.2
20260506224512 63 160 1.0 2.0 0.00 0.00 0.00 90 1010.2
20260506224015 63 145 1.0 2.0 0.00 0.00 0.00 90 1010.2
20260506223023 63 159 1.0 2.0 0.00 0.00 0.00 90 1010.2
20260506222509 64 168 0.0 2.0 0.00 0.00 0.00 90 1010.2
20260506222014 64 153 1.0 2.0 0.00 0.00 0.00 90 1010.2
20260506221513 63 32 1.0 1.0 0.00 0.00 0.00 90 1010.5
20260506220033 63 200 1.0 1.0 0.00 8.56 8.56 90 1010.2
20260506215510 64 148 4.0 5.0 0.00 8.56 8.56 90 1010.5
20260506215012 64 58 2.0 3.0 0.00 8.56 8.56 90 1010.5
20260506214514 64 166 2.0 4.0 0.00 8.56 8.56 90 1010.2
20260506214013 64 175 1.0 2.0 0.00 8.56 8.56 90 1010.2
20260506213511 64 145 1.0 2.0 0.00 8.56 8.56 90 1010.2
20260506213023 64 108 5.0 7.0 0.00 8.56 8.56 90 1010.5
20260506212509 64 126 4.0 5.0 0.00 8.56 8.56 91 1010.5
20260506212013 64 151 4.0 4.0 0.00 8.56 8.56 91 1010.5
20260506211512 64 165 4.0 5.0 0.00 8.56 8.56 91 1010.5
20260506211013 64 148 4.0 5.0 0.00 8.56 8.56 91 1010.5
20260506210510 64 156 2.0 4.0 0.00 8.56 8.56 91 1010.2
20260506205516 64 144 6.0 7.0 0.00 8.56 8.56 91 1010.5
20260506205013 64 131 4.0 5.0 0.00 8.56 8.56 91 1010.5
20260506204513 64 136 2.0 3.0 0.00 8.56 8.56 91 1010.5
20260506203510 64 203 4.0 4.0 0.00 8.56 8.56 91 1010.5
20260506203023 64 163 6.0 7.0 0.00 8.56 8.56 91 1010.5
20260506202509 64 131 7.0 9.0 0.00 8.56 8.56 91 1010.2
20260506202012 64 162 2.0 4.0 0.00 8.56 8.56 92 1010.5
20260506201513 64 157 4.0 5.0 0.00 8.56 8.56 92 1010.2
20260506201020 64 130 6.0 7.0 0.00 8.56 8.56 92 1010.2
20260506200031 64 145 2.0 4.0 0.00 8.56 8.56 92 1010.2
20260506195013 64 117 7.0 8.0 0.00 8.56 8.56 92 1009.8
20260506194512 64 110 4.0 5.0 0.00 8.56 8.56 92 1009.5
20260506194014 64 103 3.0 4.0 0.00 8.56 8.56 92 1009.8
20260506193510 64 337 4.0 6.0 0.00 8.56 8.56 91 1009.8
20260506193024 64 153 2.0 4.0 0.00 8.56 8.56 91 1009.8
20260506192510 64 142 3.0 4.0 0.00 8.56 8.56 91 1009.5
20260506192013 64 137 3.0 4.0 0.00 8.56 8.56 91 1009.5
20260506191512 64 151 7.0 9.0 0.00 8.56 8.56 91 1009.1
20260506191013 64 23 2.0 4.0 0.00 8.56 8.56 91 1009.5
20260506190509 64 315 3.0 4.0 0.00 8.56 8.56 91 1009.5
20260506190032 64 156 9.0 11.0 0.00 8.56 8.56 91 1009.1
20260506185509 64 159 7.0 11.0 0.00 8.56 8.56 91 1009.1
20260506184512 64 126 8.0 9.0 0.00 8.56 8.56 91 1009.1
20260506184013 64 136 6.0 9.0 0.00 8.56 8.56 91 1008.8
20260506183509 64 219 4.0 6.0 0.00 8.56 8.56 90 1009.1
20260506183024 64 154 8.0 13.0 0.00 8.56 8.56 90 1008.8
20260506182509 64 140 6.0 7.0 0.00 8.56 8.56 90 1008.8
20260506182015 64 130 5.0 5.0 0.00 8.56 8.56 90 1008.8
20260506181013 64 174 7.0 9.0 0.00 8.56 8.56 89 1008.8
20260506180509 64 153 5.0 6.0 0.00 8.56 8.56 89 1008.8
20260506180033 64 181 2.0 2.0 0.00 8.56 8.56 89 1008.8
20260506175013 64 90 6.0 7.0 0.00 8.56 8.56 89 1008.8
20260506174513 64 153 3.0 4.0 0.00 8.56 8.56 89 1008.8
20260506174013 64 105 10.0 12.0 0.00 8.56 8.56 89 1008.8
20260506173510 64 147 6.0 8.0 0.00 8.56 8.56 89 1008.5
20260506173023 64 158 6.0 7.0 0.00 8.56 8.56 89 1008.8
20260506172510 64 157 6.0 8.0 0.00 8.56 8.56 89 1008.5
20260506172013 64 153 8.0 9.0 0.00 8.56 8.56 89 1008.8
20260506171513 64 165 9.0 9.0 0.00 8.56 8.56 89 1008.8
20260506171015 64 192 5.0 7.0 0.00 8.56 8.56 89 1008.8
20260506170509 64 64 4.0 6.0 0.00 8.56 8.56 89 1008.8
20260506170034 64 144 5.0 7.0 0.00 8.56 8.56 89 1008.8
20260506165509 64 148 7.0 11.0 0.00 8.56 8.56 89 1008.8
20260506165014 66 132 9.0 12.0 0.00 8.56 8.56 89 1008.8
20260506164513 66 198 9.0 9.0 0.00 8.56 8.56 88 1008.8
20260506164014 66 152 6.0 11.0 0.00 8.56 8.56 88 1009.1
20260506163510 66 160 11.0 16.0 0.00 8.56 8.56 87 1008.8
20260506162510 66 167 7.0 11.0 0.00 8.56 8.56 86 1008.8
20260506162013 66 134 9.0 12.0 0.00 8.56 8.56 85 1008.8
20260506161513 66 171 9.0 11.0 0.00 8.56 8.56 85 1009.1
20260506161015 66 143 4.0 5.0 0.00 8.56 8.56 85 1009.1
20260506160509 66 137 7.0 8.0 0.00 8.56 8.56 85 1009.1
20260506160036 66 157 11.0 12.0 0.00 8.56 8.56 85 1009.1
20260506155510 66 145 8.0 9.0 0.00 8.56 8.56 85 1009.1
20260506155014 66 171 9.0 12.0 0.00 8.56 8.56 84 1009.1
20260506154512 66 135 8.0 12.0 0.00 8.56 8.56 84 1008.8
20260506154014 66 153 10.0 11.0 0.00 8.56 8.56 83 1009.1
20260506153510 66 132 7.0 12.0 0.00 8.56 8.56 82 1009.1
20260506153024 68 133 11.0 14.0 0.00 8.56 8.56 80 1009.1
20260506152013 70 77 4.0 7.0 0.00 8.56 8.56 78 1009.1
20260506151513 70 215 7.0 9.0 0.00 8.56 8.56 76 1008.8
20260506151014 70 187 6.0 9.0 0.00 8.56 8.56 77 1008.8
20260506150509 70 232 5.0 7.0 0.00 8.56 8.56 77 1009.1
20260506150034 70 212 7.0 11.0 0.00 8.56 8.56 77 1009.1
20260506145510 70 162 5.0 6.0 0.00 8.56 8.56 78 1008.8
20260506145013 70 213 5.0 7.0 0.00 8.56 8.56 79 1008.8
20260506144513 68 216 4.0 7.0 0.00 8.56 8.56 79 1009.1
20260506144014 68 176 8.0 11.0 0.00 8.56 8.56 79 1009.1
20260506143509 68 181 3.0 4.0 0.00 8.56 8.56 79 1009.1
20260506143024 70 127 2.0 4.0 0.00 8.56 8.56 78 1008.8
20260506142509 70 167 7.0 9.0 0.00 8.56 8.56 78 1008.8
20260506142013 68 111 6.0 8.0 0.00 8.56 8.56 79 1009.1
20260506141514 68 176 8.0 12.0 0.00 8.56 8.56 79 1009.1
20260506141014 68 244 7.0 12.0 0.00 8.56 8.56 79 1009.1
20260506140509 68 234 8.0 11.0 0.00 8.56 8.56 79 1009.1
20260506140034 68 230 11.0 17.0 0.00 8.56 8.56 79 1009.1
20260506135509 68 187 5.0 9.0 0.00 8.56 8.56 79 1008.8
20260506135013 68 74 9.0 11.0 0.00 8.56 8.56 78 1009.1
20260506134014 68 184 7.0 9.0 0.00 8.56 8.56 78 1009.1
20260506133510 70 157 2.0 3.0 0.00 8.56 8.56 79 1009.1
20260506133024 68 158 8.0 12.0 0.00 8.56 8.56 79 1009.1
20260506132509 68 316 4.0 7.0 0.00 8.56 8.56 80 1008.8
20260506132013 68 121 9.0 12.0 0.00 8.56 8.56 80 1009.1
20260506131514 68 147 14.0 17.0 0.00 8.56 8.56 79 1009.1
20260506131014 70 134 6.0 9.0 0.00 8.56 8.56 79 1008.8
20260506130509 70 137 6.0 8.0 0.00 8.56 8.56 79 1009.1
20260506130034 70 192 6.0 8.0 0.00 8.56 8.56 80 1009.1
20260506125509 70 305 9.0 11.0 0.00 8.56 8.56 81 1009.1
20260506125015 68 158 6.0 9.0 0.00 8.56 8.56 81 1009.5
20260506124513 68 114 7.0 9.0 0.00 8.56 8.56 81 1009.5
20260506124013 68 180 3.0 4.0 0.00 8.56 8.56 82 1009.1
20260506123509 68 119 4.0 5.0 0.00 8.56 8.56 82 1009.1
20260506123024 68 155 6.0 9.0 0.00 8.56 8.56 83 1009.1
20260506122509 68 182 7.0 9.0 0.00 8.56 8.56 83 1009.1
20260506122014 68 140 12.0 14.0 0.00 8.56 8.56 83 1009.1
20260506121512 68 150 8.0 12.0 0.00 8.56 8.56 84 1009.1
20260506121013 68 71 14.0 22.0 0.00 8.56 8.56 83 1009.5
20260506120510 68 171 12.0 14.0 0.00 8.56 8.56 84 1009.5
20260506120034 68 216 11.0 15.0 0.10 8.56 8.56 84 1009.5
20260506115509 68 180 9.0 12.0 0.10 8.56 8.56 83 1009.5
20260506115013 68 165 9.0 16.0 0.10 8.56 8.56 84 1009.5
20260506114513 68 146 9.0 11.0 0.10 8.56 8.56 85 1009.1
20260506114014 68 163 8.0 12.0 0.10 8.56 8.56 85 1009.5
20260506113509 68 151 12.0 16.0 0.10 8.56 8.56 84 1009.5
20260506113023 68 218 8.0 9.0 0.10 8.56 8.56 84 1009.1
20260506112509 68 178 4.0 7.0 0.10 8.56 8.56 85 1009.5
20260506112013 66 146 17.0 20.0 0.10 8.56 8.56 84 1009.1
20260506111513 68 112 12.0 17.0 0.09 8.56 8.56 83 1009.1
20260506111013 66 178 9.0 12.0 0.09 8.56 8.56 84 1009.1
20260506110509 66 208 12.0 22.0 0.00 8.47 8.47 84 1009.1
20260506110033 66 71 14.0 22.0 0.17 8.47 8.47 85 1009.1
20260506105509 66 174 14.0 21.0 0.17 8.47 8.47 85 1009.1
20260506105013 66 144 12.0 21.0 0.15 8.46 8.46 86 1009.1
20260506104513 68 161 13.0 19.0 0.15 8.46 8.46 86 1009.1
20260506104013 68 172 14.0 17.0 0.09 8.39 8.39 85 1009.1
20260506103509 66 126 5.0 7.0 0.09 8.39 8.39 86 1009.5
20260506103023 68 189 12.0 16.0 0.09 8.39 8.39 85 1009.5
20260506102509 66 150 6.0 9.0 0.08 8.38 8.38 86 1009.5
20260506102013 68 129 12.0 14.0 0.05 8.35 8.35 85 1009.5
20260506101513 68 176 11.0 12.0 0.05 8.35 8.35 85 1009.5
20260506101013 66 277 16.0 19.0 0.04 8.34 8.34 86 1009.5
20260506100509 68 103 2.0 4.0 0.00 8.30 8.30 87 1009.1
20260506100035 66 116 16.0 19.0 0.02 8.30 8.30 88 1009.5
20260506095510 66 111 10.0 12.0 0.01 8.29 8.29 89 1009.5
20260506095013 66 238 13.0 19.0 0.01 8.29 8.29 89 1009.5
20260506094513 66 168 8.0 11.0 0.01 8.29 8.29 90 1009.5
20260506094014 66 180 12.0 16.0 0.00 8.28 8.28 90 1009.5
20260506093509 66 192 6.0 8.0 0.00 8.28 8.28 90 1009.1
20260506093024 66 129 12.0 19.0 0.00 8.28 8.28 89 1009.5
20260506092509 66 159 10.0 16.0 0.00 8.28 8.28 89 1009.1
20260506092013 66 178 11.0 15.0 0.00 8.28 8.28 89 1009.1
20260506091513 66 188 9.0 11.0 0.00 8.28 8.28 89 1009.1
20260506091013 66 189 12.0 16.0 0.00 8.28 8.28 89 1009.1
20260506090509 66 157 14.0 17.0 0.00 8.28 8.28 89 1009.1
20260506090032 66 182 11.0 14.0 0.48 8.28 8.28 89 1009.1
20260506085509 66 146 9.0 13.0 0.48 8.28 8.28 89 1008.5
20260506085013 64 182 17.0 23.0 0.48 8.28 8.28 89 1008.5
20260506084512 64 138 5.0 7.0 0.48 8.28 8.28 90 1009.1
20260506084013 64 176 17.0 22.0 0.28 8.08 8.08 89 1008.8
20260506083509 64 204 11.0 16.0 0.10 7.90 7.90 90 1008.8
20260506083024 64 123 12.0 16.0 0.08 7.88 7.88 89 1008.5
20260506082510 66 22 6.0 13.0 0.08 7.88 7.88 89 1008.5
20260506082013 66 245 6.0 12.0 0.08 7.88 7.88 89 1008.5
20260506081512 66 139 6.0 8.0 0.08 7.88 7.88 89 1008.1
20260506081013 64 171 13.0 19.0 0.07 7.87 7.87 89 1008.5
20260506080509 64 157 11.0 16.0 0.00 7.80 7.80 90 1008.1